This is the latest recevied weather packets stored in our database for station/object HG5CJW-10. If no packets are shown the sender has not sent any weather packets the latest 10 day(s).
| Time | Temp. | Humidity | Pressure | Rain* | Wind** | Luminosity | Snow |
|---|---|---|---|---|---|---|---|
| 1777303081 | 17.78° C | 40% | 1038 hPa | - | - | - | - |
| 1777302175 | 18.33° C | 40% | 1038.3 hPa | - | - | - | - |
| 1777301275 | 17.78° C | 40% | 1038.4 hPa | - | - | - | - |
| 1777300375 | 17.78° C | 40% | 1038.6 hPa | - | - | - | - |
| 1777298575 | 17.78° C | 40% | 1038.9 hPa | - | - | - | - |
| 1777297675 | 17.22° C | 40% | 1039 hPa | - | - | - | - |
| 1777296775 | 17.22° C | 40% | 1039.3 hPa | - | - | - | - |
| 1777294975 | 16.67° C | 40% | 1039.6 hPa | - | - | - | - |
| 1777294075 | 16.67° C | 40% | 1039.7 hPa | - | - | - | - |
| 1777292275 | 16.11° C | 40% | 1040.1 hPa | - | - | - | - |
| 1777290475 | 15.56° C | 40% | 1040.5 hPa | - | - | - | - |
| 1777289574 | 15° C | 40% | 1040.4 hPa | - | - | - | - |
| 1777288669 | 15° C | 40% | 1041 hPa | - | - | - | - |
| 1777287769 | 15° C | 40% | 1041.1 hPa | - | - | - | - |
| 1777286869 | 14.44° C | 41% | 1041.3 hPa | - | - | - | - |
| 1777285969 | 13.89° C | 41% | 1041.5 hPa | - | - | - | - |
| 1777284169 | 13.33° C | 42% | 1041.9 hPa | - | - | - | - |
| 1777283269 | 12.78° C | 42% | 1042.1 hPa | - | - | - | - |
| 1777281469 | 12.22° C | 43% | 1042.4 hPa | - | - | - | - |
| 1777280568 | 11.67° C | 44% | 1042.7 hPa | - | - | - | - |
| 1777279668 | 11.11° C | 45% | 1042.9 hPa | - | - | - | - |
| 1777278768 | 11.11° C | 45% | 1042.8 hPa | - | - | - | - |
| 1777277868 | 10.56° C | 46% | 1043 hPa | - | - | - | - |
| 1777276968 | 10° C | 46% | 1043.1 hPa | - | - | - | - |
| 1777276068 | 9.44° C | 47% | 1042.9 hPa | - | - | - | - |
* Rain since midnight (hover to see other rain measurements)
** Current wind speed in m/s (hover to see current wind gust speed)